This demonstration page uses our WeatherBlox Daily Observations layout. Learn more.

Left ArrowRight Arrow

39.01783, -85.05884

Hourly Observations for December 21, 2020

Temp ( °F °C ) Dew Point ( °F °C ) Humidity (%) Winds ( mph kmh ) Pressure ( in mb ) Visibility ( mi km ) Precip ( " mm )
12:52 am 00:52 Mostly Clear 34 1.1 31 -0.6 89 89 SSW 8 13 29.90 1013 7 11 N/A
1:52 am 01:52 Mostly Clear 34 1.1 31 -0.6 89 89 SSW 7 11 29.88 1012 7 11 N/A
2:52 am 02:52 Mostly Clear with Mist and Fog 33 0.6 30 -1.1 89 89 S 7 11 29.88 1012 6 10 N/A
3:52 am 03:52 Cloudy with Mist and Fog 35 1.7 32 undefined 89 89 SSW 10 17 29.86 1011 6 10 N/A
4:25 am 04:25 Cloudy with Mist and Fog 35 1.7 33 0.6 93 93 SSW 10 17 29.89 1012 6 10 N/A
4:31 am 04:31 Cloudy with Mist and Fog 35 1.7 33 0.6 93 93 SSW 8 13 29.89 1012 6 10 N/A
4:52 am 04:52 Cloudy with Mist and Fog 35 1.7 33 0.6 93 93 SSW 9 15 29.85 1011 6 10 N/A
5:01 am 05:01 Cloudy with Mist and Fog 35 1.7 33 0.6 93 93 SW 10 17 29.89 1012 5 8 N/A
5:15 am 05:15 Cloudy with Mist and Fog 35 1.7 33 0.6 93 93 SW 8 13 29.89 1012 5 8 N/A
5:52 am 05:52 Cloudy with Mist and Fog 37 2.8 33 0.6 86 86 WSW 10 17 29.87 1012 6 10 N/A
6:52 am 06:52 Cloudy with Mist and Fog 37 2.8 33 0.6 86 86 WSW 12 19 29.87 1011 5 8 N/A
7:52 am 07:52 Cloudy with Mist and Fog 37 2.8 34 1.1 89 89 SSW 12 19 29.86 1011 5 8 N/A
8:52 am 08:52 Cloudy with Mist and Fog 37 2.8 34 1.1 89 89 SSW 7 11 29.85 1011 4 6 N/A
9:52 am 09:52 Cloudy with Mist and Fog 38 3.3 35 1.7 89 89 SSW 9 15 29.83 1010 4 6 N/A
10:02 am 10:02 Mostly Sunny 38 3.3 35 1.7 89 89 undefined N/A 29.85 1011 N/A N/A
10:52 am 10:52 Cloudy with Mist and Fog 38 3.3 35 1.7 89 89 S 13 20 29.81 1009 4 6 N/A
11:52 am 11:52 Cloudy with Mist and Fog 40 4.4 36 2.2 86 86 SSW 10 17 29.78 1009 5 8 N/A
12:22 pm 12:22 Cloudy with Haze 41 5 36 2.2 82 82 SSW 13 20 29.79 1009 6 10 0.00 0.00
12:52 pm 12:52 Cloudy 42 5.6 37 2.8 82 82 SW 9 15 29.75 1007 7 11 0.00 0.00
1:32 pm 13:32 Cloudy 42 5.6 36 2.2 79 79 SW 12 19 29.78 1008 8 13 N/A
1:52 pm 13:52 Cloudy 43 6.1 36 2.2 76 76 SW 10 17 29.75 1007 8 13 N/A
2:52 pm 14:52 Cloudy with Light Rain 43 6.1 36 2.2 76 76 WSW 10 17 29.75 1007 10 16 0.00 0.00
3:42 pm 15:42 Cloudy 44 6.7 36 2.2 73 73 SW 9 15 29.77 1008 10 16 0.00 0.00
3:52 pm 15:52 Partly Cloudy 45 7.2 36 2.2 71 71 SW 10 17 29.74 1007 10 16 0.00 0.00
4:52 pm 16:52 Mostly Sunny 44 6.7 36 2.2 73 73 SW 10 17 29.76 1008 10 16 N/A
5:52 pm 17:52 Mostly Clear 43 6.1 35 1.7 74 74 SW 10 17 29.78 1009 10 16 N/A
6:52 pm 18:52 Mostly Cloudy 46 7.8 33 0.6 61 61 W 13 20 29.81 1010 10 16 N/A
7:52 pm 19:52 Partly Cloudy 45 7.2 31 -0.6 58 58 WSW 9 15 29.83 1010 10 16 N/A
8:52 pm 20:52 Cloudy 45 7.2 29 -1.7 54 54 WSW 12 19 29.84 1011 10 16 N/A
9:52 pm 21:52 Partly Cloudy 43 6.1 29 -1.7 58 58 W 12 19 29.85 1011 10 16 N/A
10:52 pm 22:52 Mostly Cloudy 43 6.1 27 -2.8 53 53 WNW 24 39 29.88 1012 10 16 N/A
11:52 pm 23:52 Cloudy 42 5.6 26 -3.3 53 53 W 16 26 29.88 1012 10 16 N/A

Powered by AerisWeather